15min,AgWx,beryljct,423,03JUL2021:00:00:00,65.6,12.88,58.3,59.6,60.8,62.7,59.3,56,65,42,0.975,44.7,48.3,39.5,0.899,2.3,304,9.3,5.9,-0.00006,-0.00005,68.3,69.7,10,0,0,.,9.07,0.00,0.00
15min,AgWx,beryljct,423,03JUL2021:00:15:00,64.3,12.87,64.5,64.2,61.2,64.2,58.6,51,61,43,0.877,42.6,45.3,40.3,2.302,1.9,300,8.7,3.6,-0.00010,-0.00010,68.0,69.7,10,0,0,.,9.07,0.00,0.00
15min,AgWx,beryljct,423,03JUL2021:00:30:00,63.6,12.87,63.1,61.3,61.7,64.3,59.1,47,57,41,0.776,41.3,44.0,37.9,5.415,4.1,331,16,5.6,0.00017,0.00027,67.7,69.6,10,0,0,.,9.07,0.00,0.00
15min,AgWx,beryljct,423,03JUL2021:00:45:00,63.0,12.85,64.2,62.9,62.5,63.7,61.5,41,45,39,0.782,38.8,41.0,37.8,3.288,3.7,304,1.3,5.3,0.00018,0.00029,67.4,69.5,10,0,0,.,9.08,0.00,0.00
15min,AgWx,beryljct,423,03JUL2021:01:00:00,62.4,12.85,65.3,61.4,61.6,64.2,59.3,47,56,39,0.886,41.2,44.4,38.1,2.455,1.4,303,1.5,3.3,-0.00014,-0.00018,67.2,69.4,10,0,0,.,9.07,0.00,0.00
15min,AgWx,beryljct,423,03JUL2021:01:15:00,62.1,12.84,60.6,61.3,64.2,67.5,61.3,42,60,31,1.110,40.3,47.5,36.1,0.636,0.8,305,1.0,2.5,-0.00025,-0.00035,67.0,69.4,10,0,0,.,9.08,0.00,0.00
15min,AgWx,beryljct,423,03JUL2021:01:30:00,61.7,12.82,59.6,59.9,61.7,63.9,59.9,50,61,40,0.947,42.7,47.3,38.8,3.135,1.4,279,75,3.4,-0.00016,-0.00020,66.7,69.2,10,0,0,.,9.08,0.00,0.00
15min,AgWx,beryljct,423,03JUL2021:01:45:00,61.0,12.82,55.4,55.3,57.0,59.9,54.9,61,66,54,0.966,43.5,45.0,41.7,3.683,3.8,186,12,6.1,0.00005,0.00010,66.4,69.2,9,0,0,.,9.08,0.00,0.00
15min,AgWx,beryljct,423,03JUL2021:02:00:00,60.1,12.82,60.8,59.0,56.9,59.0,55.3,57,67,47,0.806,41.8,45.4,39.0,5.086,4.6,171,19,7.2,0.00012,0.00020,66.2,69.1,10,0,0,.,9.08,0.00,0.00
15min,AgWx,beryljct,423,03JUL2021:02:15:00,59.8,12.8,63.8,62.9,60.7,62.9,59.1,43,46,40,0.777,37.9,38.7,37.2,5.349,5.1,182,4.0,6.0,0.00029,0.00043,66.0,68.9,9,0,0,.,9.08,0.00,0.00
15min,AgWx,beryljct,423,03JUL2021:02:30:00,60.4,12.8,63.4,62.9,63.3,64.3,62.5,39,41,37,0.758,38.1,38.7,36.7,6.818,6.6,170,5.6,8.2,0.00046,0.00064,65.8,68.9,10,0,0,.,9.08,0.00,0.00
15min,AgWx,beryljct,423,03JUL2021:02:45:00,61.2,12.79,64.5,65.0,64.4,65.5,62.9,36,39,34,0.737,37.2,37.8,36.4,4.341,5.9,169,6.8,8.0,0.00044,0.00063,65.6,68.7,9,0,0,.,9.08,0.00,0.00
15min,AgWx,beryljct,423,03JUL2021:03:00:00,61.5,12.79,63.1,61.0,62.0,65.0,59.4,42,50,35,0.794,38.8,40.7,36.8,2.258,2.6,181,13,6.6,0.00004,0.00010,65.4,68.6,9,0,0,.,9.07,0.00,0.00
15min,AgWx,beryljct,423,03JUL2021:03:15:00,61.1,12.78,57.5,57.5,58.7,61.7,55.6,51,62,43,0.830,40.6,43.1,38.5,1.052,1.8,167,37,4.8,-0.00010,-0.00011,65.2,68.5,10,0,0,.,9.07,0.00,0.00
15min,AgWx,beryljct,423,03JUL2021:03:30:00,60.0,12.77,58.6,55.7,56.4,57.6,54.9,57,69,50,0.840,41.3,45.1,39.2,1.863,1.6,152,5.6,2.4,-0.00014,-0.00018,65.0,68.4,10,0,0,.,9.07,0.00,0.00
15min,AgWx,beryljct,423,03JUL2021:03:45:00,59.0,12.75,56.3,55.8,56.7,59.3,54.5,56,70,43,0.862,41.0,45.0,36.6,1.403,1.2,151,10,3.0,-0.00019,-0.00025,64.8,68.3,9,0,0,.,9.08,0.00,0.00
15min,AgWx,beryljct,423,03JUL2021:04:00:00,58.1,12.74,53.8,53.4,54.1,55.9,53.0,65,71,56,0.915,42.3,44.3,40.2,3.508,1.5,124,55,4.9,-0.00016,-0.00021,64.6,68.2,10,0,0,.,9.08,0.00,0.00
15min,AgWx,beryljct,423,03JUL2021:04:15:00,57.1,12.74,53.3,53.0,53.5,55.7,52.4,64,77,52,1.036,41.4,45.5,38.1,1.995,0.8,321,0.0,3.3,-0.00023,-0.00033,64.4,68.1,11,0,0,.,9.08,0.00,0.00
15min,AgWx,beryljct,423,03JUL2021:04:30:00,56.1,12.74,50.4,51.0,51.8,53.3,51.0,72,76,65,0.948,43.3,45.9,41.8,2.938,2.6,112,32,3.7,0.00019,0.00032,64.3,68.0,9,0,0,.,9.08,0.00,0.00
15min,AgWx,beryljct,423,03JUL2021:04:45:00,55.2,12.73,52.2,51.7,50.5,51.7,49.8,77,81,68,0.886,43.4,44.5,41.4,3.201,2.3,137,17,3.5,0.00014,0.00024,64.1,67.8,10,0,0,.,9.08,0.00,0.00
15min,AgWx,beryljct,423,03JUL2021:05:00:00,54.5,12.73,53.0,52.6,51.7,52.7,50.4,69,78,63,0.884,42.0,43.8,40.3,0,1.4,165,0.1,3.2,0.00012,0.00020,63.7,67.8,10,0,0,.,9.08,0.00,0.00
15min,AgWx,beryljct,423,03JUL2021:05:15:00,54.2,12.72,50.3,50.5,51.4,52.7,50.1,75,83,65,1.036,43.6,45.6,41.1,2.696,0.6,162,49,4.5,0.00006,0.00009,63.4,67.6,10,2,0,.,9.08,0.00,0.00
15min,AgWx,beryljct,423,03JUL2021:05:30:00,54.0,12.73,51.5,50.6,50.4,51.0,49.8,72,83,62,0.838,41.8,45.5,38.2,0,1.2,327,0.1,3.0,0.00014,0.00021,63.2,67.5,10,8,0,.,9.08,0.00,0.00
15min,AgWx,beryljct,423,03JUL2021:05:45:00,54.5,12.73,52.2,52.1,51.5,52.5,50.7,69,75,63,0.992,41.7,44.4,39.3,0,0.2,327,0.0,1.0,0.00022,0.00024,63.0,67.4,10,32,0,.,9.08,0.00,0.00
15min,AgWx,beryljct,423,03JUL2021:06:00:00,55.2,12.73,56.5,55.9,53.3,55.9,52.0,71,77,58,0.881,44.1,46.3,41.3,1.228,0.3,316,4.7,1.5,0.00023,0.00026,62.9,67.3,9,33,0,.,9.08,0.00,0.00
15min,AgWx,beryljct,423,03JUL2021:06:15:00,55.9,12.78,55.5,55.1,55.5,56.3,54.8,65,77,57,1.145,43.9,48.2,40.9,0,1.8,300,0.1,2.5,0.00055,0.00070,62.7,67.2,10,63,0,.,9.08,0.00,0.00
15min,AgWx,beryljct,423,03JUL2021:06:30:00,56.8,12.82,58.1,57.6,56.3,57.7,55.2,75,79,66,1.193,48.3,49.5,45.7,0,0.1,300,0.0,0.6,0.00066,0.00071,62.6,67.1,10,112,0,.,9.08,0.00,0.00
15min,AgWx,beryljct,423,03JUL2021:06:45:00,58.8,12.86,60.7,60.3,58.2,60.3,57.4,72,77,63,1.124,49.0,50.6,47.1,1.578,0.5,335,8.3,2.5,0.00114,0.00125,62.6,67.0,10,204,0,.,9.08,0.00,0.00
15min,AgWx,beryljct,423,03JUL2021:07:00:00,61.1,12.87,62.8,63.2,61.8,63.4,60.2,55,66,45,0.912,45.4,49.6,41.4,3.376,2.8,343,7.9,4.6,0.00129,0.00163,62.3,66.9,10,165,0,.,9.08,0.00,0.00
15min,AgWx,beryljct,423,03JUL2021:07:15:00,62.8,12.94,64.4,64.4,63.8,64.4,62.9,44,48,41,0.856,41.3,43.0,40.4,3.398,3.5,352,9.5,4.5,0.00148,0.00197,62.3,66.8,10,153,0,.,9.07,0.00,0.00
15min,AgWx,beryljct,423,03JUL2021:07:30:00,64.1,12.98,65.5,65.1,64.5,65.2,63.2,44,51,40,0.941,41.8,45.2,40.2,2.872,2.6,359,3.7,3.2,0.00144,0.00183,62.2,66.7,10,159,0,.,9.07,0.00,0.00
15min,AgWx,beryljct,423,03JUL2021:07:45:00,65.1,13,64.8,65.2,65.5,65.9,65.1,43,47,39,1.005,42.2,44.7,40.1,1.666,2.8,4.2,11,3.8,0.00155,0.00199,62.2,66.6,10,167,0,.,9.07,0.00,0.00
15min,AgWx,beryljct,423,03JUL2021:08:00:00,66.5,13.16,69.2,69.2,67.1,69.2,65.0,39,48,33,0.829,41.1,45.0,39.1,3.135,2.6,356,11,4.4,0.00220,0.00268,62.3,66.5,9,286,0,.,9.06,0.00,0.00
15min,AgWx,beryljct,423,03JUL2021:08:15:00,68.6,13.39,69.3,69.7,70.3,71.8,69.1,36,52,32,1.295,41.6,51.5,39.2,3.201,3.0,356,16,5.3,0.00247,0.00306,62.5,66.3,10,299,0,.,9.06,0.00,0.00
15min,AgWx,beryljct,423,03JUL2021:08:30:00,70.5,13.48,70.9,70.8,70.3,70.9,69.4,48,54,43,1.340,49.5,52.8,46.7,2.872,2.9,51,8.3,5.0,0.00254,0.00304,62.5,66.3,10,328,0,.,9.05,0.00,0.00
15min,AgWx,beryljct,423,03JUL2021:08:45:00,72.9,13.58,73.0,72.9,72.2,72.9,70.7,45,62,34,1.258,49.6,58.8,41.7,0,1.5,74,17,3.5,0.00329,0.00370,62.5,66.2,9,468,0,.,9.05,0.00,0.00
15min,AgWx,beryljct,423,03JUL2021:09:00:00,75.0,13.59,77.3,77.0,75.6,77.0,72.9,31,47,26,0.913,43.0,51.4,39.6,2.126,1.7,6.6,25,3.1,0.00321,0.00370,62.7,66.1,10,424,0,.,9.05,0.00,0.00
15min,AgWx,beryljct,423,03JUL2021:09:15:00,77.7,13.96,77.0,77.4,77.4,78.3,77.0,31,42,24,0.941,44.5,52.4,38.6,1.578,2.0,23,20,3.1,0.00398,0.00457,62.8,66.0,9,531,0,.,9.04,0.00,0.00
15min,AgWx,beryljct,423,03JUL2021:09:30:00,80.3,13.94,78.6,78.8,78.1,78.8,76.9,34,44,25,1.164,47.6,54.1,40.1,0.833,1.3,45,0.7,1.8,0.00481,0.00535,62.9,66.0,9,679,0,.,9.04,0.00,0.00
15min,AgWx,beryljct,423,03JUL2021:09:45:00,83.5,13.87,79.5,79.6,79.3,79.8,78.8,40,50,31,1.368,52.7,58.9,45.5,3.223,0.9,57,13,3.2,0.00526,0.00574,63.1,65.9,9,741,0,.,9.04,0.00,0.00
15min,AgWx,beryljct,423,03JUL2021:10:00:00,85.6,13.89,81.0,81.3,80.3,81.7,79.5,40,50,30,1.328,53.7,59.2,47.2,1.096,2.0,77,9.3,4.6,0.00572,0.00640,63.3,65.8,9,781,0,.,9.04,0.00,0.00
15min,AgWx,beryljct,423,03JUL2021:10:15:00,87.3,13.8,82.4,82.7,82.0,82.9,81.2,39,48,31,1.416,54.3,60.0,48.1,2.324,2.7,72,7.4,4.4,0.00614,0.00695,63.2,65.8,9,821,0,.,9.04,0.00,0.00
15min,AgWx,beryljct,423,03JUL2021:10:30:00,89.0,13.76,83.5,84.2,83.7,84.5,82.7,37,47,29,1.561,54.9,61.3,47.5,3.288,2.8,50,19,5.1,0.00657,0.00745,63.3,65.7,9,869,0,.,9.04,0.00,0.00
15min,AgWx,beryljct,423,03JUL2021:10:45:00,90.5,13.72,85.2,84.9,85.1,85.9,83.9,36,50,22,1.256,54.8,63.2,42.8,3.31,3.3,74,15,5.9,0.00654,0.00750,63.2,65.7,9,844,0,.,9.04,0.00,0.00
15min,AgWx,beryljct,423,03JUL2021:11:00:00,91.4,13.75,83.5,84.3,85.4,86.3,84.3,32,46,21,1.573,51.9,62.1,41.5,2.126,2.4,75,8.6,3.5,0.00439,0.00511,63.7,65.6,9,516,0,.,9.03,0.00,0.00
15min,AgWx,beryljct,423,03JUL2021:11:15:00,90.9,13.71,84.4,84.0,84.5,86.2,83.2,35,50,21,1.553,53.0,62.7,41.1,2.696,3.0,123,33,5.9,0.00363,0.00438,64.2,65.6,9,402,0,.,9.03,0.00,0.00
15min,AgWx,beryljct,423,03JUL2021:11:30:00,91.0,13.31,85.2,86.3,86.1,87.4,84.1,32,46,19,1.612,52.0,63.0,39.7,2.17,1.7,128,23,3.1,0.00573,0.00642,64.6,65.6,9,744,0,.,9.04,0.00,0.00
15min,AgWx,beryljct,423,03JUL2021:11:45:00,92.7,13.26,87.8,88.8,87.2,89.0,85.9,32,53,17,0.961,52.9,67.5,38.5,1.841,2.8,60,27,4.4,0.00823,0.00926,64.8,65.6,10,1076,0,.,9.04,0.00,0.00
15min,AgWx,beryljct,423,03JUL2021:12:00:00,95.4,13.2,89.1,88.9,88.4,89.8,87.5,25,41,17,0.925,48.2,60.9,38.5,0.636,1.6,107,24,3.3,0.00764,0.00847,63.3,65.7,10,1006,0,.,9.03,0.00,0.00
15min,AgWx,beryljct,423,03JUL2021:12:15:00,96.5,13.19,85.2,86.8,87.0,89.1,86.0,30,41,18,1.061,51.4,60.1,39.8,5.48,5.1,107,30,9.7,0.00666,0.00798,65.5,65.7,9,796,0,.,9.03,0.00,0.00
15min,AgWx,beryljct,423,03JUL2021:12:30:00,94.8,13.29,85.5,83.3,84.7,86.7,83.1,32,42,22,1.238,51.7,58.8,42.1,6.226,5.7,126,15,11.5,0.00475,0.00600,66.1,65.8,9,500,0,.,9.03,0.00,0.00
15min,AgWx,beryljct,423,03JUL2021:12:45:00,92.9,13.29,85.3,86.7,84.5,86.7,82.7,35,44,26,1.360,54.0,60.1,46.6,7.76,6.0,128,19,11.1,0.00651,0.00786,66.7,65.8,10,794,0,.,9.04,0.00,0.00
15min,AgWx,beryljct,423,03JUL2021:13:00:00,92.3,13.28,86.6,86.1,85.1,86.6,83.8,34,40,28,1.268,53.8,57.6,49.6,4.669,6.2,124,15,11.5,0.00644,0.00784,67.1,65.9,9,767,0,.,9.04,0.00,0.00
15min,AgWx,beryljct,423,03JUL2021:13:15:00,92.2,13.31,88.9,87.4,85.9,87.4,83.8,37,50,21,1.196,56.4,64.4,42.0,4.691,4.2,102,21,8.0,0.00658,0.00767,67.6,66.0,9,838,0,.,9.04,0.00,0.00
15min,AgWx,beryljct,423,03JUL2021:13:30:00,93.1,13.25,87.5,88.2,87.5,88.6,85.8,33,40,24,1.656,55.1,61.5,47.2,5.744,4.9,131,18,7.8,0.00753,0.00884,68.1,66.1,10,944,0,.,9.04,0.00,0.00
15min,AgWx,beryljct,423,03JUL2021:13:45:00,94.2,13.23,86.5,87.8,88.1,88.9,87.5,30,41,21,1.478,52.5,60.8,43.2,6.84,5.3,119,21,8.8,0.00811,0.00957,68.6,66.3,10,1009,0,.,9.04,0.00,0.00
15min,AgWx,beryljct,423,03JUL2021:14:00:00,93.8,13.26,84.4,83.6,84.9,87.8,82.9,38,45,26,1.529,56.1,59.5,47.2,2.696,5.6,115,16,10.5,0.00484,0.00602,69.0,66.4,10,540,0,.,9.04,0.00,0.00
15min,AgWx,beryljct,423,03JUL2021:14:15:00,93.2,13.26,91.0,89.0,88.0,89.9,83.7,27,39,17,1.503,48.9,60.4,39.0,3.288,5.6,228,96,10.0,0.00644,0.00788,69.5,66.5,9,768,0,.,9.04,0.00,0.00
15min,AgWx,beryljct,423,03JUL2021:14:30:00,95.0,13.19,92.4,92.6,91.1,92.6,89.3,25,37,18,1.069,50.7,60.3,42.1,8.09,5.1,207,43,11.1,0.00865,0.01019,70.0,66.7,10,1054,0,.,9.04,0.00,0.00
15min,AgWx,beryljct,423,03JUL2021:14:45:00,96.0,13.22,90.5,91.2,90.7,92.6,89.2,24,33,16,1.471,48.2,57.8,39.5,6.27,4.0,191,32,8.3,0.00540,0.00658,70.4,66.8,9,631,0,.,9.03,0.00,0.00
15min,AgWx,beryljct,423,03JUL2021:15:00:00,95.6,13.23,90.3,89.8,89.1,91.2,87.1,26,36,19,1.040,49.9,57.2,41.4,2.674,5.8,236,25,12.5,0.00480,0.00620,71.5,67.0,10,501,0,.,9.04,0.00,0.00
15min,AgWx,beryljct,423,03JUL2021:15:15:00,95.7,13.26,86.1,88.8,90.0,91.6,88.5,27,34,21,1.599,51.5,57.8,45.5,2.894,6.0,208,18,9.3,0.00601,0.00751,71.9,67.2,10,693,0,.,9.03,0.00,0.00
15min,AgWx,beryljct,423,03JUL2021:15:30:00,95.4,13.27,86.6,89.0,88.6,90.2,87.3,29,42,20,1.447,51.9,61.4,43.3,4.604,5.2,278,29,13.9,0.00480,0.00605,72.3,67.4,10,546,0,.,9.04,0.00,0.00
15min,AgWx,beryljct,423,03JUL2021:15:45:00,95.4,13.25,91.7,92.0,89.8,92.0,87.0,24,38,17,1.005,47.0,58.7,39.9,3.946,4.0,276,46,9.0,0.00473,0.00584,72.6,67.5,10,576,0,.,9.04,0.00,0.00
15min,AgWx,beryljct,423,03JUL2021:16:00:00,95.9,13.19,88.8,88.3,89.7,92.2,86.5,29,49,17,1.849,51.9,66.2,40.9,1.228,3.1,14,39,5.2,0.00453,0.00542,72.8,67.7,10,585,0,.,9.04,0.00,0.00
15min,AgWx,beryljct,423,03JUL2021:16:15:00,98.0,13.09,89.3,90.5,91.2,92.5,88.5,24,44,17,1.282,49.2,64.0,40.6,9.43,3.1,252,82,9.4,0.00566,0.00664,73.2,67.9,10,719,0,.,9.03,0.00,0.00
15min,AgWx,beryljct,423,03JUL2021:16:30:00,97.7,13.13,91.3,88.8,88.9,90.6,88.0,29,34,22,1.166,52.1,56.3,45.9,1.447,6.3,241,23,12.0,0.00573,0.00724,72.8,68.1,10,661,0,.,9.04,0.00,0.00
15min,AgWx,beryljct,423,03JUL2021:16:45:00,97.6,13.13,92.3,92.3,91.1,93.0,88.3,22,36,16,1.044,46.3,58.3,39.6,0.438,3.1,291,27,7.7,0.00475,0.00571,73.1,68.3,10,604,0,.,9.03,0.00,0.00
15min,AgWx,beryljct,423,03JUL2021:17:00:00,97.9,13.14,87.7,88.5,90.3,92.3,88.5,27,36,20,1.501,51.5,59.0,44.9,2.696,4.8,248,18,7.7,0.00503,0.00626,73.1,68.5,10,598,0,.,9.04,0.00,0.00
15min,AgWx,beryljct,423,03JUL2021:17:15:00,96.5,13.15,83.0,83.5,87.6,90.0,83.5,30,37,19,1.400,52.0,58.1,42.6,5.546,5.0,239,33,7.9,0.00250,0.00355,73.4,68.7,10,254,0,.,9.04,0.00,0.00
15min,AgWx,beryljct,423,03JUL2021:17:30:00,92.9,13.16,90.7,90.0,85.4,90.0,81.8,26,38,16,0.782,45.9,54.0,38.1,2.653,5.1,246,12,7.6,0.00191,0.00299,73.7,68.9,10,95,0,.,9.04,0.00,0.00
15min,AgWx,beryljct,423,03JUL2021:17:45:00,90.6,13.13,89.3,87.9,88.0,91.0,84.3,23,37,16,0.817,44.7,56.2,38.0,2.346,1.8,243,17,3.7,0.00098,0.00142,73.8,69.1,9,86,0,.,9.04,0.00,0.00
15min,AgWx,beryljct,423,03JUL2021:18:00:00,88.8,13.1,86.9,87.8,87.3,89.5,83.2,25,45,18,1.176,46.3,59.9,39.5,1.293,2.0,264,7.2,4.2,0.00084,0.00130,74.2,69.2,10,81,0,.,9.05,0.00,0.00
15min,AgWx,beryljct,423,03JUL2021:18:15:00,87.6,13.09,87.0,87.5,86.7,88.3,85.3,26,35,18,1.087,47.4,55.9,39.9,0,0.1,278,0.0,1.3,0.00003,0.00006,74.1,69.4,10,73,0,.,9.05,0.00,0.00
15min,AgWx,beryljct,423,03JUL2021:18:30:00,86.8,13.11,89.1,88.9,88.1,88.9,87.4,19,24,17,0.770,40.0,46.7,37.8,1.688,1.0,280,0.6,2.0,-0.00009,0.00013,73.9,69.6,10,85,0,.,9.05,0.00,0.00
15min,AgWx,beryljct,423,03JUL2021:18:45:00,86.6,13.06,80.8,85.9,88.6,90.0,85.9,19,35,16,1.464,40.4,54.8,37.5,3.113,3.0,278,40,4.0,0.00084,0.00153,73.7,69.8,10,126,0,.,9.05,0.00,0.00
15min,AgWx,beryljct,423,03JUL2021:19:00:00,87.1,13.03,87.0,85.4,86.1,89.9,81.1,29,52,16,1.085,48.7,62.1,38.3,4.823,4.0,137,42,11.0,0.00140,0.00223,73.5,69.9,10,160,0,.,9.05,0.00,0.00
15min,AgWx,beryljct,423,03JUL2021:19:15:00,87.1,13.02,82.6,83.0,84.3,85.9,83.0,27,31,24,1.088,46.8,51.2,43.8,6.599,6.4,228,8.3,9.4,0.00115,0.00164,73.4,70.1,10,97,24,.,9.05,0.00,0.00
15min,AgWx,beryljct,423,03JUL2021:19:30:00,86.0,13,83.0,83.5,83.6,84.7,83.0,24,28,22,0.943,43.4,46.5,40.8,6.489,7.1,223,11,13.2,0.00110,0.00156,73.3,70.2,9,40,100,.,9.05,0.00,0.00
15min,AgWx,beryljct,423,03JUL2021:19:45:00,84.4,12.98,81.2,81.1,82.0,83.5,80.9,26,29,23,0.986,43.4,45.8,42.0,5.524,5.7,224,8.5,7.2,0.00077,0.00114,73.4,70.3,10,13,0,.,9.05,0.00,0.00
15min,AgWx,beryljct,423,03JUL2021:20:00:00,82.6,12.97,80.5,80.6,80.3,81.1,79.5,27,28,25,0.894,42.9,44.1,41.4,5.7,6.0,230,4.6,8.3,0.00076,0.00111,73.3,70.4,10,5,0,.,9.05,0.00,0.00
15min,AgWx,beryljct,423,03JUL2021:20:15:00,81.3,12.96,78.5,79.3,79.9,80.8,79.3,26,27,25,0.935,42.2,42.8,41.2,5.459,5.7,224,6.0,6.9,0.00070,0.00104,73.0,70.5,10,2,0,.,9.05,0.00,0.00
15min,AgWx,beryljct,423,03JUL2021:20:30:00,80.2,12.96,78.6,79.2,79.1,79.7,77.9,26,29,24,0.889,41.6,43.3,39.9,6.204,7.6,255,11,11.2,0.00093,0.00131,72.7,70.5,9,0,0,.,9.05,0.00,0.00
15min,AgWx,beryljct,423,03JUL2021:20:45:00,79.5,12.95,78.8,78.6,78.6,79.1,78.1,26,27,25,0.868,41.2,41.9,40.4,8.11,7.1,263,6.0,9.5,0.00087,0.00123,72.4,70.6,10,0,0,.,9.06,0.00,0.00
15min,AgWx,beryljct,423,03JUL2021:21:00:00,78.9,12.95,76.7,77.5,78.0,78.6,77.2,27,28,26,0.880,41.2,41.8,40.6,5.7,6.5,263,6.1,9.0,0.00078,0.00113,71.4,70.7,10,0,0,.,9.06,0.00,0.00
15min,AgWx,beryljct,423,03JUL2021:21:15:00,78.1,12.95,77.3,77.0,77.1,77.7,76.5,28,29,26,0.879,41.4,42.1,40.2,6.708,6.5,266,6.2,9.7,0.00074,0.00107,71.7,70.7,10,0,0,.,9.05,0.00,0.00
15min,AgWx,beryljct,423,03JUL2021:21:30:00,77.4,12.93,75.7,76.0,76.4,77.1,75.9,29,29,28,0.883,41.4,42.0,41.1,6.752,6.4,261,6.2,7.9,0.00072,0.00104,71.7,70.8,10,0,0,.,9.05,0.00,0.00
15min,AgWx,beryljct,423,03JUL2021:21:45:00,76.8,12.92,76.7,76.5,76.0,76.5,75.7,29,30,28,0.870,41.4,41.9,41.0,7.717,7.1,266,6.9,9.1,0.00078,0.00111,71.4,70.8,9,0,0,.,9.05,0.00,0.00
15min,AgWx,beryljct,423,03JUL2021:22:00:00,76.4,12.92,75.4,75.7,76.0,76.6,75.6,29,30,28,0.884,41.5,41.9,41.0,7.804,6.6,261,6.4,8.7,0.00074,0.00105,71.1,70.8,10,0,0,.,9.06,0.00,0.00
15min,AgWx,beryljct,423,03JUL2021:22:15:00,76.0,12.91,74.3,75.3,75.4,75.8,75.1,30,30,29,0.886,41.5,41.9,41.0,5.765,6.6,263,6.2,8.4,0.00072,0.00103,70.8,70.8,10,0,0,.,9.05,0.00,0.00
15min,AgWx,beryljct,423,03JUL2021:22:30:00,75.5,12.91,70.8,72.7,74.9,75.4,72.7,31,35,29,0.962,41.9,43.6,41.1,1.754,4.5,238,36,7.5,0.00044,0.00068,70.1,70.8,10,0,0,.,9.06,0.00,0.00
15min,AgWx,beryljct,423,03JUL2021:22:45:00,74.3,12.89,73.6,71.3,71.2,72.5,70.4,36,38,33,0.865,42.9,44.3,40.8,6.007,3.5,158,7.9,6.5,0.00021,0.00036,69.5,70.7,10,0,0,.,9.06,0.00,0.00
15min,AgWx,beryljct,423,03JUL2021:23:00:00,73.4,12.88,73.2,71.7,72.6,73.4,71.2,32,35,30,0.876,41.1,42.6,39.9,3.617,4.4,185,19,7.3,0.00039,0.00061,70.0,70.7,10,0,0,.,9.06,0.00,0.00
15min,AgWx,beryljct,423,03JUL2021:23:15:00,72.5,12.88,69.0,70.0,71.2,72.2,70.0,33,36,30,0.832,40.3,42.5,38.4,5.831,3.7,175,19,5.8,0.00027,0.00044,69.9,70.7,10,0,0,.,9.06,0.00,0.00
15min,AgWx,beryljct,423,03JUL2021:23:30:00,71.5,12.87,70.4,70.2,69.8,70.7,69.4,33,34,30,0.804,39.1,39.8,38.0,2.258,4.2,170,7.0,5.9,0.00033,0.00052,69.0,70.7,10,0,0,.,9.06,0.00,0.00
15min,AgWx,beryljct,423,03JUL2021:23:45:00,70.4,12.86,68.9,69.1,69.0,70.7,67.9,37,40,32,0.902,41.6,43.2,38.8,3.047,3.4,187,9.1,5.5,0.00020,0.00033,68.4,70.6,10,0,0,.,9.06,0.00,0.00
15min,AgWx,bigpiney,439,03JUL2021:00:00:00,60.3,12.67,56.8,57.6,57.9,59.5,57.3,57,59,54,0.947,42.9,43.6,42.7,4.077,3.6,261,8.1,5.3,0.00004,0.00009,57.2,53.3,48,0,0,0.0,2.05,0.00,0.00
15min,AgWx,bigpiney,439,03JUL2021:00:15:00,60.0,12.65,57.2,57.1,57.2,57.6,56.7,60,61,59,0.970,43.6,43.9,43.2,5.393,5.5,247,7.2,6.6,0.00014,0.00021,57.2,53.4,48,0,0,0.0,2.05,0.00,0.00
15min,AgWx,bigpiney,439,03JUL2021:00:30:00,59.5,12.64,57.1,54.9,54.8,57.2,53.4,65,68,61,0.942,43.2,43.8,42.7,3.003,4.3,242,39,6.1,0.00004,0.00008,57.1,53.3,48,0,0,0.0,2.05,0.00,0.00
15min,AgWx,bigpiney,439,03JUL2021:00:45:00,58.8,12.64,51.3,52.2,55.6,57.1,52.2,61,70,57,0.925,42.3,43.1,42.0,3.858,2.2,89,78,5.7,-0.00010,-0.00011,57.0,53.4,48,0,0,0.0,2.05,0.00,0.00
15min,AgWx,bigpiney,439,03JUL2021:01:00:00,58.0,12.64,51.5,50.7,51.7,52.9,50.3,72,77,67,0.939,42.8,43.5,42.2,2.784,2.5,213,17,5.2,-0.00011,-0.00012,57.0,53.3,48,0,0,0.0,2.05,0.00,0.00
15min,AgWx,bigpiney,439,03JUL2021:01:15:00,57.0,12.64,51.5,51.7,50.6,52.1,49.2,74,79,69,0.919,42.6,43.0,42.1,3.025,3.0,228,11,4.1,-0.00009,-0.00010,56.9,53.3,48,0,0,0.0,2.05,0.00,0.00
15min,AgWx,bigpiney,439,03JUL2021:01:30:00,56.1,12.61,53.9,53.6,52.5,53.7,51.3,68,72,64,0.893,42.1,43.1,40.9,1.425,1.8,305,30,3.0,-0.00015,-0.00019,56.8,53.4,48,0,0,0.0,2.05,0.00,0.00
15min,AgWx,bigpiney,439,03JUL2021:01:45:00,55.4,12.61,54.5,54.2,53.3,54.2,52.4,65,69,62,0.887,41.8,42.6,41.3,0,0.9,75,81,2.2,-0.00023,-0.00032,56.7,53.4,48,0,0,0.0,2.05,0.00,0.00
15min,AgWx,bigpiney,439,03JUL2021:02:00:00,54.9,12.61,53.1,52.5,53.3,54.3,52.2,65,70,62,0.895,41.9,42.8,41.4,1.491,0.3,110,34,1.5,-0.00031,-0.00048,56.7,53.4,48,0,0,0.0,2.05,0.00,0.00
15min,AgWx,bigpiney,439,03JUL2021:02:15:00,54.6,12.6,53.2,53.8,53.7,54.2,52.6,63,66,62,0.886,41.6,41.9,41.4,2.105,1.4,133,26,2.1,-0.00018,-0.00024,56.6,53.3,48,0,0,0.0,2.05,0.00,0.00
15min,AgWx,bigpiney,439,03JUL2021:02:30:00,54.3,12.59,50.9,51.0,52.0,53.7,51.0,68,72,63,0.912,41.9,42.2,41.4,1.535,1.8,71,12,2.8,-0.00015,-0.00019,56.5,53.3,48,0,0,0.0,2.05,0.00,0.00
15min,AgWx,bigpiney,439,03JUL2021:02:45:00,53.9,12.58,47.7,48.3,49.9,51.0,48.3,76,78,72,0.902,42.5,42.8,41.9,2.039,2.5,82,18,3.2,-0.00012,-0.00015,56.4,53.4,48,0,0,0.0,2.05,0.00,0.00
15min,AgWx,bigpiney,439,03JUL2021:03:00:00,53.4,12.57,51.4,50.8,48.5,50.8,47.2,78,83,71,0.902,42.1,42.7,41.6,1.929,2.0,168,35,3.0,-0.00016,-0.00021,56.4,53.4,48,0,0,0.0,2.05,0.00,0.00
15min,AgWx,bigpiney,439,03JUL2021:03:15:00,52.8,12.56,49.5,48.4,50.5,51.5,48.3,72,77,69,0.890,41.7,41.9,41.3,2.214,2.0,134,14,3.3,-0.00014,-0.00018,56.3,53.3,48,0,0,0.0,2.05,0.00,0.00
15min,AgWx,bigpiney,439,03JUL2021:03:30:00,52.2,12.55,45.4,45.5,47.2,49.0,45.5,79,84,75,0.875,41.2,41.8,40.7,2.039,2.3,174,16,3.1,-0.00014,-0.00017,56.2,53.3,48,0,0,0.0,2.05,0.00,0.00
15min,AgWx,bigpiney,439,03JUL2021:03:45:00,51.5,12.54,45.4,45.4,45.4,45.9,45.0,86,87,85,0.887,41.5,41.7,41.1,2.324,2.7,224,15,3.4,-0.00014,-0.00018,56.1,53.3,48,0,0,0.0,2.05,0.00,0.00
15min,AgWx,bigpiney,439,03JUL2021:04:00:00,50.8,12.53,46.7,48.2,46.3,49.0,45.3,85,89,75,0.892,42.0,42.9,41.4,2.302,2.0,227,14,2.7,-0.00017,-0.00022,56.0,53.3,48,0,0,0.0,2.05,0.00,0.00
15min,AgWx,bigpiney,439,03JUL2021:04:15:00,50.2,12.52,50.3,49.0,46.0,49.0,45.3,85,87,74,0.877,41.6,41.9,41.2,1.644,1.9,237,20,3.2,-0.00018,-0.00023,55.9,53.2,48,0,0,0.0,2.05,0.00,0.00
15min,AgWx,bigpiney,439,03JUL2021:04:30:00,49.8,12.51,45.4,45.7,48.0,49.9,45.7,77,82,71,0.859,41.1,41.6,40.6,3.529,2.7,231,10,4.4,-0.00011,-0.00013,55.8,53.3,48,0,0,0.0,2.05,0.00,0.00
15min,AgWx,bigpiney,439,03JUL2021:04:45:00,49.5,12.5,48.0,47.9,46.3,48.0,45.6,83,84,79,0.897,41.3,41.9,40.4,3.508,3.4,243,5.4,4.3,-0.00010,-0.00012,55.7,53.3,48,2,0,0.0,2.05,0.00,0.00
15min,AgWx,bigpiney,439,03JUL2021:05:00:00,49.3,12.5,45.5,45.3,46.0,48.0,45.3,82,84,79,0.843,40.8,42.0,40.1,3.047,3.2,225,10,4.6,-0.00009,-0.00011,55.6,53.2,48,7,0,0.0,2.05,0.00,0.00
15min,AgWx,bigpiney,439,03JUL2021:05:15:00,49.1,12.51,45.1,45.2,45.5,46.1,44.7,83,84,82,0.850,40.6,41.3,40.0,0.986,1.6,227,49,3.7,-0.00033,-0.00031,55.5,53.2,48,24,0,0.0,2.05,0.00,0.00
15min,AgWx,bigpiney,439,03JUL2021:05:30:00,49.2,12.54,45.3,45.2,45.5,46.6,44.7,83,85,81,0.863,40.6,41.5,39.6,0.482,1.7,20,18,3.4,-0.00019,-0.00016,55.4,53.2,48,50,0,0.0,2.05,0.00,0.00
15min,AgWx,bigpiney,439,03JUL2021:05:45:00,49.5,12.57,47.3,47.1,46.1,47.2,45.2,84,86,82,0.950,41.7,43.3,40.7,0,0.2,47,4.8,1.6,-0.00005,-0.00004,55.4,53.2,48,80,0,0.0,2.05,0.00,0.00
15min,AgWx,bigpiney,439,03JUL2021:06:00:00,50.2,12.58,47.7,47.4,47.3,47.7,47.0,87,88,85,0.960,43.6,44.3,43.0,1.798,0.7,217,6.3,2.4,0.00020,0.00023,55.3,53.2,48,111,0,0.0,2.05,0.00,0.00
15min,AgWx,bigpiney,439,03JUL2021:06:15:00,51.2,12.62,49.9,49.3,48.4,49.3,47.5,85,88,81,0.971,44.2,44.8,43.6,1.008,0.6,223,14,1.8,0.00043,0.00047,55.2,53.2,48,151,0,0.0,2.05,0.00,0.00
15min,AgWx,bigpiney,439,03JUL2021:06:30:00,52.7,12.67,52.8,52.2,50.7,52.2,49.3,80,82,76,1.034,44.7,45.6,43.9,0,0.3,222,8.0,1.4,0.00070,0.00075,55.1,53.1,48,196,0,0.0,2.05,0.00,0.00
15min,AgWx,bigpiney,439,03JUL2021:06:45:00,54.5,12.72,54.5,53.8,53.2,54.0,52.2,73,78,68,0.982,44.8,45.9,43.3,1.337,0.3,7.8,12,2.3,0.00099,0.00107,55.0,53.1,48,242,0,0.0,2.05,0.00,0.00
15min,AgWx,bigpiney,439,03JUL2021:07:00:00,56.7,12.81,55.9,55.5,54.9,55.9,53.9,68,70,66,0.985,44.5,46.0,43.4,0,0.1,130,29,1.4,0.00130,0.00139,54.9,53.1,48,290,0,0.0,2.05,0.00,0.00
15min,AgWx,bigpiney,439,03JUL2021:07:15:00,58.9,12.89,58.9,57.6,56.4,57.6,55.6,67,71,64,1.149,45.5,48.3,44.1,0.197,1.1,193,22,2.5,0.00166,0.00183,54.8,53.1,48,336,0,0.0,2.05,0.00,0.00
15min,AgWx,bigpiney,439,03JUL2021:07:30:00,60.9,13.06,60.5,59.3,58.3,59.3,57.4,65,71,60,1.077,46.4,48.5,45.1,0,0.6,171,17,2.3,0.00198,0.00216,54.8,53.0,48,383,0,0.0,2.05,0.00,0.00
15min,AgWx,bigpiney,439,03JUL2021:07:45:00,62.9,13.28,60.9,60.8,60.1,60.9,59.3,61,65,59,1.082,46.8,48.6,45.5,2.039,0.4,168,13,2.9,0.00233,0.00252,54.7,53.0,48,432,0,0.0,2.05,0.00,0.00
15min,AgWx,bigpiney,439,03JUL2021:08:00:00,64.8,13.42,63.1,63.0,61.7,63.2,60.8,61,64,59,1.192,48.2,50.3,46.7,0.548,0.8,161,34,2.7,0.00271,0.00296,54.6,53.0,48,479,0,0.0,2.05,0.00,0.00
15min,AgWx,bigpiney,439,03JUL2021:08:15:00,66.6,13.58,65.6,65.0,64.2,65.5,62.8,61,64,57,1.242,50.4,52.6,48.7,0,0.8,119,19,2.4,0.00310,0.00337,54.5,53.0,48,526,0,0.0,2.05,0.00,0.00
15min,AgWx,bigpiney,439,03JUL2021:08:30:00,68.7,13.86,66.8,66.6,66.0,66.8,65.1,58,65,53,1.175,50.9,53.9,48.9,0,0.6,143,33,2.0,0.00345,0.00374,54.5,53.0,48,568,0,0.0,2.05,0.00,0.00